Latest Weather Observations for Launceston

IDT60801

Issued at 6:35 am EST Monday 21 April 2014 (issued every 30 minutes, with the page automatically refreshed every 10 minutes)

About weather observations | Map of weather stations | Latest weather observations for TAS | Other Formats
Station Details ID: 091237 Name: LAUNCESTON (TI TREE BEND) Lat: -41.42 Lon: 147.12 Height: 5.0 m
Data from the previous 72 hours. | See also: Recent months at Launceston
Date/Time
EST
Temp
°C
App
Temp
°C
Dew
Point
Rel
Hum
%
Delta-T
°C
Wind Press
QNH
hPa
Press
MSL
hPa
Rain
since 9 am
mm
Dir
 
Spd
km/h
Gust
km/h
Spd
kts
Gust
kts
21/06:30am 1.9 -0.3 1.2 95 0.3 ESE 2 4 1 2 - - 0.0
21/06:00am 2.2 0.1 1.6 96 0.2 ESE 2 4 1 2 - - 0.0
21/05:30am 2.4 0.3 1.7 95 0.3 ESE 2 4 1 2 - - 0.0
21/05:00am 2.8 0.8 2.2 96 0.2 E 2 6 1 3 - - 0.0
21/04:30am 2.6 0.9 1.9 95 0.3 CALM 0 2 0 1 - - 0.0
21/04:00am 3.3 1.0 2.7 96 0.2 E 4 6 2 3 - - 0.0
21/03:30am 3.3 1.4 2.7 96 0.2 S 2 4 1 2 - - 0.0
21/03:00am 4.0 2.6 3.4 96 0.2 CALM 0 4 0 2 - - 0.0
21/02:30am 4.6 2.5 4.0 96 0.3 E 4 6 2 3 - - 0.0
21/02:00am 4.6 3.3 4.0 96 0.3 CALM 0 0 0 0 - - 0.0
21/01:30am 5.8 4.0 5.4 97 0.2 ESE 4 7 2 4 - - 0.0
21/01:00am 5.6 4.5 5.0 96 0.3 CALM 0 0 0 0 - - 0.0
21/12:30am 6.0 5.0 5.4 96 0.3 CALM 0 0 0 0 - - 0.0
21/12:00am 6.9 5.3 6.3 96 0.3 E 4 6 2 3 - - 0.0
 
Date/Time
EST
Temp
°C
App
Temp
°C
Dew
Point
Rel
Hum
%
Delta-T
°C
Wind Press
QNH
hPa
Press
MSL
hPa
Rain
since 9 am
mm
Dir
 
Spd
km/h
Gust
km/h
Spd
kts
Gust
kts
20/11:30pm 7.3 5.8 6.6 95 0.3 SSE 4 6 2 3 - - 0.0
20/11:00pm 8.1 7.5 7.5 96 0.3 CALM 0 0 0 0 - - 0.0
20/10:30pm 8.7 7.5 8.1 96 0.3 S 4 6 2 3 - - 0.0
20/10:00pm 9.6 8.2 8.7 94 0.4 E 6 7 3 4 - - 0.0
20/09:30pm 9.6 8.5 8.4 92 0.6 WNW 4 7 2 4 - - 0.0
20/09:00pm 10.6 9.4 9.5 93 0.6 N 6 7 3 4 - - 0.0
20/08:30pm 10.9 9.2 10.0 94 0.5 NW 9 13 5 7 - - 0.0
20/08:00pm 11.0 9.3 9.8 92 0.6 NW 9 11 5 6 - - 0.0
20/07:30pm 11.8 10.7 10.5 92 0.7 N 7 9 4 5 - - 0.0
20/07:00pm 12.4 11.9 10.6 89 0.9 N 4 6 2 3 - - 0.0
20/06:30pm 12.9 11.9 11.0 88 1.0 NNW 7 11 4 6 - - 0.0
20/06:00pm 13.1 12.0 10.6 85 1.3 NNW 7 9 4 5 - - 0.0
20/05:30pm 14.2 12.5 11.2 82 1.6 NNW 11 13 6 7 - - 0.0
20/05:00pm 15.1 13.1 11.5 79 1.9 NNW 13 20 7 11 - - 0.0
20/04:30pm 15.4 12.5 11.0 75 2.3 N 17 24 9 13 - - 0.0
20/04:00pm 15.7 12.4 10.9 73 2.6 NNW 19 28 10 15 - - 0.0
20/03:30pm 16.3 13.0 10.8 70 2.9 NNW 19 28 10 15 - - 0.0
20/03:00pm 16.7 12.6 10.1 65 3.5 NNW 22 32 12 17 - - 0.0
20/02:30pm 16.3 12.6 10.2 67 3.2 NNW 20 28 11 15 - - 0.0
20/02:00pm 16.3 13.0 9.5 64 3.5 NNW 17 26 9 14 - - 0.0
20/01:30pm 16.3 11.9 8.8 61 3.8 NNW 22 37 12 20 - - 0.0
20/01:00pm 16.3 12.2 8.5 60 4.0 NW 20 35 11 19 - - 0.0
20/12:30pm 16.3 12.2 8.8 61 3.8 NNW 20 32 11 17 - - 0.0
20/12:00pm 16.8 13.2 9.7 63 3.7 NW 19 32 10 17 - - 0.0
20/11:30am 15.1 11.8 9.5 69 2.9 NNW 17 22 9 12 - - 0.0
20/11:00am 13.9 10.5 9.1 73 2.4 NNW 17 26 9 14 - - 0.0
20/10:30am 12.6 10.4 9.4 81 1.6 N 11 15 6 8 - - 0.0
20/10:00am 10.3 8.7 7.9 85 1.2 NNW 6 7 3 4 - - 0.0
20/09:30am 8.1 7.2 6.2 88 0.9 CALM 0 0 0 0 - - 0.0
20/09:00am 6.9 5.9 5.4 90 0.7 CALM 0 2 0 1 - - 0.0
20/08:30am 5.3 4.0 4.1 92 0.5 CALM 0 0 0 0 - - 0.0
20/08:00am 4.5 3.2 3.9 96 0.3 CALM 0 2 0 1 - - 0.0
20/07:30am 3.3 1.0 2.7 96 0.2 ENE 4 4 2 2 - - 0.0
20/07:00am 3.1 1.5 2.7 97 0.2 CALM 0 0 0 0 - - 0.0
20/06:30am 2.5 0.5 2.1 97 0.2 ESE 2 6 1 3 - - 0.0
20/06:00am 2.6 0.2 2.2 97 0.2 E 4 7 2 4 - - 0.0
20/05:30am 2.4 0.7 2.0 97 0.2 CALM 0 0 0 0 - - 0.0
20/05:00am 2.6 1.0 2.2 97 0.2 CALM 0 2 0 1 - - 0.0
20/04:30am 2.8 1.2 2.4 97 0.2 CALM 0 0 0 0 - - 0.0
20/04:00am 2.2 0.1 1.5 95 0.3 ESE 2 4 1 2 - - 0.0
20/03:30am 3.4 1.1 2.8 96 0.2 ENE 4 6 2 3 - - 0.0
20/03:00am 3.9 2.1 3.3 96 0.2 ESE 2 4 1 2 - - 0.0
20/02:30am 3.8 2.3 3.2 96 0.2 CALM 0 0 0 0 - - 0.0
20/02:00am 3.5 2.0 2.8 95 0.3 CALM 0 0 0 0 - - 0.0
20/01:30am 4.4 3.0 3.8 96 0.2 CALM 0 0 0 0 - - 0.0
20/01:00am 4.5 2.4 3.9 96 0.3 W 4 4 2 2 - - 0.0
20/12:30am 4.6 2.9 3.9 95 0.3 N 2 7 1 4 - - 0.0
20/12:00am 4.3 2.9 3.4 94 0.4 CALM 0 0 0 0 - - 0.0
 
Date/Time
EST
Temp
°C
App
Temp
°C
Dew
Point
Rel
Hum
%
Delta-T
°C
Wind Press
QNH
hPa
Press
MSL
hPa
Rain
since 9 am
mm
Dir
 
Spd
km/h
Gust
km/h
Spd
kts
Gust
kts
19/11:30pm 4.7 3.3 3.8 94 0.4 CALM 0 0 0 0 - - 0.0
19/11:00pm 5.6 3.6 4.6 93 0.4 ENE 4 6 2 3 - - 0.0
19/10:30pm 5.5 4.2 4.2 91 0.6 CALM 0 0 0 0 - - 0.0
19/10:00pm 6.6 5.2 5.4 92 0.5 ESE 2 4 1 2 - - 0.0
19/09:30pm 7.0 6.0 5.6 91 0.6 CALM 0 0 0 0 - - 0.0
19/09:00pm 7.7 6.9 6.5 92 0.5 CALM 0 0 0 0 - - 0.0
19/08:30pm 7.9 7.1 6.5 91 0.6 CALM 0 0 0 0 - - 0.0
19/08:00pm 8.4 7.3 6.9 90 0.7 SW 2 4 1 2 - - 0.0
19/07:30pm 8.9 7.7 6.3 84 1.2 N 2 4 1 2 - - 0.0
19/07:00pm 10.3 9.4 6.1 75 1.9 CALM 0 4 0 2 - - 0.0
19/06:30pm 11.7 9.6 6.0 68 2.7 NNW 6 7 3 4 - - 0.0
19/06:00pm 12.0 10.0 6.3 68 2.7 NW 6 7 3 4 - - 0.0
19/05:30pm 12.7 10.7 6.1 64 3.1 NW 6 7 3 4 - - 0.0
19/05:00pm 13.6 10.9 5.5 58 3.8 NW 9 13 5 7 - - 0.0
19/04:30pm 14.3 11.4 4.6 52 4.5 NW 9 15 5 8 - - 0.0
19/04:00pm 15.6 12.6 4.0 46 5.4 N 9 15 5 8 - - 0.0
19/03:30pm 15.5 12.8 3.9 46 5.3 NNW 7 11 4 6 - - 0.0
19/03:00pm 15.3 12.8 4.7 49 5.0 NNW 7 13 4 7 - - 0.0
19/02:30pm 15.2 12.6 3.4 45 5.4 NNW 6 11 3 6 - - 0.0
19/02:00pm 16.5 14.1 4.5 45 5.6 N 6 13 3 7 - - 0.0
19/01:30pm 15.9 13.4 4.6 47 5.3 NNW 7 13 4 7 - - 0.0
19/01:00pm 14.5 11.6 2.4 44 5.4 NNW 7 11 4 6 - - 0.0
19/12:30pm 14.9 12.6 2.8 44 5.4 N 4 11 2 6 - - 0.0
19/12:00pm 15.0 12.7 2.5 43 5.6 NNW 4 6 2 3 - - 0.0
19/11:30am 14.7 12.0 3.5 47 5.1 ESE 7 15 4 8 - - 0.0
19/11:00am 13.9 11.3 3.4 49 4.7 N 6 9 3 5 - - 0.0
19/10:30am 12.9 11.1 5.3 60 3.5 N 4 6 2 3 - - 0.0
19/10:00am 11.3 9.5 5.4 67 2.7 N 4 7 2 4 - - 0.0
19/09:30am 9.7 7.8 5.1 73 2.1 N 4 6 2 3 - - 0.0
19/09:00am 9.0 7.9 5.2 77 1.7 CALM 0 0 0 0 - - 3.4
19/08:30am 7.0 4.6 4.3 83 1.2 E 6 7 3 4 - - 3.4
19/08:00am 5.7 4.1 4.7 93 0.4 SSW 2 4 1 2 - - 3.4
19/07:30am 4.7 3.4 4.0 95 0.3 CALM 0 6 0 3 - - 3.4
19/07:00am 3.2 1.6 2.6 96 0.2 CALM 0 0 0 0 - - 3.4
19/06:30am 3.4 1.1 2.8 96 0.2 NNE 4 7 2 4 - - 3.4
19/06:00am 2.7 0.2 1.8 94 0.3 SSE 4 7 2 4 - - 3.4
19/05:30am 3.5 1.6 2.8 95 0.3 SW 2 7 1 4 - - 3.4
19/05:00am 3.9 1.6 2.9 93 0.4 E 4 7 2 4 - - 3.4
19/04:30am 4.6 2.4 3.6 93 0.4 E 4 6 2 3 - - 3.4
19/04:00am 4.1 1.8 2.9 92 0.5 W 4 7 2 4 - - 3.4
19/03:30am 5.3 3.2 4.0 91 0.5 NNW 4 7 2 4 - - 3.4
19/03:00am 5.5 3.5 4.5 93 0.4 NNE 4 6 2 3 - - 3.4
19/02:30am 4.7 3.3 3.4 91 0.5 CALM 0 4 0 2 - - 3.4
19/02:00am 5.2 3.0 3.5 89 0.7 S 4 7 2 4 - - 3.4
19/01:30am 5.7 3.5 3.2 84 1.0 ENE 4 7 2 4 - - 3.4
19/01:00am 6.2 4.1 3.9 85 1.0 SE 4 6 2 3 - - 3.4
19/12:30am 7.1 5.8 4.2 82 1.3 CALM 0 2 0 1 - - 3.4
19/12:00am 7.6 5.0 4.2 79 1.5 NE 7 11 4 6 - - 3.4
 
Date/Time
EST
Temp
°C
App
Temp
°C
Dew
Point
Rel
Hum
%
Delta-T
°C
Wind Press
QNH
hPa
Press
MSL
hPa
Rain
since 9 am
mm
Dir
 
Spd
km/h
Gust
km/h
Spd
kts
Gust
kts
18/11:30pm 7.8 5.0 3.3 73 1.9 NW 7 9 4 5 - - 3.4
18/11:00pm 8.7 5.2 3.3 69 2.3 WSW 11 15 6 8 - - 3.4
18/10:30pm 7.8 5.6 3.5 74 1.8 SSW 4 7 2 4 - - 3.4
18/10:00pm 9.4 6.6 2.9 64 2.8 WSW 7 11 4 6 - - 3.4
18/09:30pm 10.2 7.3 2.8 60 3.2 W 7 11 4 6 - - 3.4
18/09:00pm 9.6 6.9 3.8 67 2.5 W 7 11 4 6 - - 3.4
18/08:30pm 9.8 7.1 3.5 65 2.7 W 7 9 4 5 - - 3.4
18/08:00pm 11.4 8.2 3.2 57 3.6 W 9 15 5 8 - - 3.4
18/07:30pm 11.5 8.3 2.8 55 3.8 WSW 9 17 5 9 - - 3.4
18/07:00pm 11.5 8.7 3.0 56 3.7 SW 7 13 4 7 - - 3.4
18/06:30pm 12.2 9.4 2.9 53 4.1 SSW 7 11 4 6 - - 3.4
18/06:00pm 12.7 9.5 2.8 51 4.3 SW 9 13 5 7 - - 3.4
18/05:30pm 13.6 9.6 2.8 48 4.8 SW 13 20 7 11 - - 3.4
18/05:00pm 15.2 11.2 3.0 44 5.5 WSW 13 22 7 12 - - 3.4
18/04:30pm 16.4 12.1 3.5 42 5.9 WSW 15 26 8 14 - - 3.4
18/04:00pm 16.7 13.7 4.1 43 5.9 SW 9 19 5 10 - - 3.4
18/03:30pm 16.8 11.8 3.8 42 6.0 SW 19 32 10 17 - - 3.4
18/03:00pm 17.0 12.2 4.7 44 5.8 SSW 19 24 10 13 - - 3.4
18/02:30pm 16.7 13.1 5.0 46 5.6 SSW 13 22 7 12 - - 3.4
18/02:00pm 15.8 14.1 8.5 62 3.7 S 7 13 4 7 - - 3.4
18/01:30pm 15.2 14.1 9.8 70 2.8 S 6 13 3 7 - - 3.4
18/01:00pm 14.1 12.9 10.3 78 2.0 SW 7 11 4 6 - - 3.4
18/12:30pm 13.9 12.1 10.7 81 1.7 S 11 19 6 10 - - 3.4
18/12:00pm 14.3 12.2 9.9 75 2.3 E 11 17 6 9 - - 3.2
18/11:30am 14.9 14.6 11.5 80 1.8 NE 4 7 2 4 - - 3.2
18/11:00am 14.4 12.7 11.2 81 1.7 WSW 11 28 6 15 - - 3.2
18/10:30am 15.2 13.4 13.2 88 1.1 NW 15 24 8 13 - - 0.8
18/10:00am 16.3 15.4 13.6 84 1.5 NNW 11 19 6 10 - - 0.0
18/09:30am 15.7 15.3 14.2 91 0.9 NW 9 17 5 9 - - 0.0
18/09:00am 15.1 14.4 13.3 89 1.0 NNW 9 17 5 9 - - 0.2
18/08:30am 15.8 15.1 13.1 84 1.5 NNW 9 17 5 9 - - 0.0
18/08:00am 15.2 14.4 12.9 86 1.3 NW 9 15 5 8 - - 0.0
18/07:30am 14.6 13.7 12.6 88 1.1 NW 9 15 5 8 - - 0.0
18/07:00am 14.3 13.4 12.7 90 0.9 WNW 9 13 5 7 - - 0.0

Other Formats:

Comma delimited format used in spreadsheet applications
http://www.bom.gov.au/fwo/IDT60801/IDT60801.94969.axf

JavaScript Object Notation format (JSON) in row-major order
http://www.bom.gov.au/fwo/IDT60801/IDT60801.94969.json